Overview Statistics Trail Chart Weather Telemetry Raw packets
 

This is the latest recevied weather packets stored in our database for station/object HP1CDW-10. If no packets are shown the sender has not sent any weather packets the latest 10 day(s).

<< 41 42 43 44 45 46 47 >>
Time Temp. Humidity Pressure Rain* Wind** Luminosity Snow
1787868952 35.56° C 49% 999.6 hPa - - - -
1787868348 36.11° C 49% 999.4 hPa - - - -
1787867743 36.11° C 48% 999.3 hPa - - - -
1787867138 36.11° C 48% 999.4 hPa - - - -
1787866533 36.11° C 48% 999.2 hPa - - - -
1787865928 36.11° C 49% 999.4 hPa - - - -
1787865324 36.11° C 49% 999.3 hPa - - - -
1787864114 36.67° C 48% 999.3 hPa - - - -
1787863509 36.67° C 47% 999.2 hPa - - - -
1787861695 36.11° C 47% 999.6 hPa - - - -
1787861090 36.67° C 46% 999.3 hPa - - - -
1787860485 36.67° C 45% 999.2 hPa - - - -
1787859881 36.67° C 46% 999.4 hPa - - - -
1787859276 37.22° C 45% 999.3 hPa - - - -
1787858671 36.67° C 45% 999.2 hPa - - - -
1787858066 37.22° C 44% 999.4 hPa - - - -
1787857461 37.22° C 44% 999.6 hPa - - - -
1787856857 37.22° C 45% 999.7 hPa - - - -
1787856252 37.22° C 45% 999.7 hPa - - - -
1787855647 35° C 50% 999.9 hPa - - - -
1787855042 36.11° C 46% 999.8 hPa - - - -
1787854437 37.22° C 46% 999.7 hPa - - - -
1787853833 36.67° C 47% 999.9 hPa - - - -
1787853228 37.22° C 48% 1000.7 hPa - - - -
1787852623 37.22° C 48% 1000.6 hPa - - - -

* Rain since midnight (hover to see other rain measurements)
** Current wind speed in m/s (hover to see current wind gust speed)